Regional Weather Roundup
Issued by NWS

Home | Current Version | Previous Version | Text Only | Print | Product List | Glossary Off
Versions: 1 2 3 4 5 6 7 8 9 10 11 12 13 14 15 16 17 18 19 20 21 22 23 24 25 26 27 28 29 30 31 32 33 34 35 36 37 38 39 40 41 42 43 44 45 46 47 48 49 50

000
ASUS45 KTFX 210204
RWRMT
MONTANA HOURLY WEATHER ROUNDUP
NATIONAL WEATHER SERVICE GREAT FALLS MT
804 PM MDT SAT SEP 20 2014

NOTE: "FAIR" INDICATES FEW OR NO CLOUDS BELOW 12000 FEET WITH NO
SIGNIFICANT WEATHER AND/OR OBSTRUCTIONS TO VISIBILITY.

* THESE STATIONS ARE NOT UNDER NWS QUALITY CONTROL. THEY DO NOT
   REPORT WEATHER SUCH AS PRECIPITATION OR FOG.

MTZ001>007-043-210300-
WEST OF THE DIVIDE
CITY           SKY/WX    TMP DP  RH WIND       PRES   REMARKS
KALISPELL      CLEAR     63  48  58 CALM      30.13F
MISSOULA       CLEAR     72  43  35 N10       30.12S
BUTTE          CLEAR     66  37  34 SE13G20   30.26R
MULLAN PASS    CLEAR     61  36  39 VRB5      30.27F
* ESSEX        N/A       57  47  69 SE1        N/A
* LINCOLN      N/A       70  41  35 NE7G16     N/A
* LOOKOUT PASS N/A       63  42  46 N1         N/A
* POLSON       N/A       63  40  43 E1         N/A
* RONAN APT    CLEAR     68  43  40 N/A        N/A
* SEELEY LAKE  N/A       72  35  26 W3G10      N/A
* THOMP F APT  CLEAR     67  39  36 NW2G7      N/A
$$

MTZ008-052>055-210300-
SOUTHWEST MONTANA
CITY           SKY/WX    TMP DP  RH WIND       PRES   REMARKS
BOZEMAN        CLEAR     63  34  34 S7        30.22R
DILLON         CLEAR     63  39  41 NE10      30.20S
W YELLOWSTONE  CLEAR     54  45  72 CALM      30.29S
* THREE FORKS  CLEAR     66  57  73 N/A        N/A
* BOULDER HILL N/A       58  36  44 VRB1       N/A
* MONIDA PASS  N/A       64  39  40 NE1        N/A
* RAYNOLDS PAS N/A       61  15  16 N9G16      N/A
* WHITEHALL    N/A       69  40  35 E3G11      N/A
* WISE RIVER   N/A       67  23  19 SE7G15     N/A
$$

MTZ009>010-012-014-046-048-049-054-210300-
EAST SLOPES AND CENTRAL MONTANA
CITY           SKY/WX    TMP DP  RH WIND       PRES   REMARKS
CUT BANK       CLEAR     63  43  48 E7        30.23S
GREAT FALLS    CLEAR     63  41  45 E12       30.22R
HELENA         CLEAR     68  41  38 SW6       30.19R
MALMSTROM AFB  CLEAR     61  41  48 NE10      30.23R
* CONRAD       CLEAR     64  45  50 NE7        N/A
* EAST GLACIER N/A       56  46  69 E5         N/A
* MONARCH      N/A       52  41  66 E8         N/A
* PENDROY      N/A       59  43  56 E8         N/A
* ROGERS PASS  N/A       55  43  64 NW2        N/A
* SAINT MARY   N/A       63  42  46 SE3        N/A
* SWEET GRASS  N/A       60  38  44 E9         N/A
$$

MTZ011-013-016-021-035-040-045-047-050-051-210300-
NORTH CENTRAL MONTANA
CITY           SKY/WX    TMP DP  RH WIND       PRES   REMARKS
HAVRE          CLEAR     61  37  41 NE6       30.21S
LEWISTOWN      CLEAR     59  45  60 SE3       30.27R
* CHESTER      N/A       69  40  35 N/A        N/A
* DENTON       N/A       58  42  55 NE2        N/A
* GEYSER       N/A       56  44  64 E7         N/A
* JUDITH GAP   N/A       56  45  67 NW9        N/A
* LOMA         N/A       63  41  45 NE6        N/A
$$

MTZ017>020-022>027-061-062-210300-
NORTHEAST MONTANA
CITY           SKY/WX    TMP DP  RH WIND       PRES   REMARKS
GLASGOW        CLEAR     61  36  39 N5        30.19R
JORDAN         CLEAR     55  39  55 NW8       30.22R
SIDNEY         CLEAR    N/A N/A N/A NW8       30.17R
WOLF POINT     CLEAR     55  37  51 NW5       30.18R
* BEAVER HILL  N/A       58  32  37 W9         N/A
* CIRCLE       N/A       64  40  41 NW5        N/A
* LINDSAY DVD  N/A       55  36  49 NW8        N/A
* SACO         N/A       61  36  39 NW9        N/A
$$

MTZ028>042-056>058-210300-
SOUTHCENTRAL AND SOUTHEAST MONTANA
CITY           SKY/WX    TMP DP  RH WIND       PRES   REMARKS
BAKER          CLEAR     61  36  39 NW12      30.21R
BILLINGS       CLEAR     66  43  43 E8        30.24R
LIVINGSTON     CLEAR     61  43  52 SE8       30.23R
MILES CITY     CLEAR     61  39  44 N8        30.21R
* LAUREL APT   CLEAR     63  41  45 N/A        N/A
* ROUNDUP APT  CLEAR     63  43  48 N/A        N/A
* ALZADA       N/A       57  38  49 W1         N/A
* HYSHAM       N/A       61  38  43 N/A        N/A
* LAME DEER    N/A       60  40  48 N/A        N/A
* REED POINT   N/A       63  40  43 N/A        N/A
* ROSCOE HILL  N/A       58  33  39 SE6        N/A
$$

REGIONAL REPORTS...DAKOTAS
CITY           SKY/WX    TMP DP  RH WIND       PRES   REMARKS
WILLISTON      CLEAR     57  36  46 NW8       30.14R
DICKINSON      CLEAR     52  36  55 NW8       30.14R
BEACH          N/A       52  34  50 NW9       30.19R
CROSBY         CLEAR     57  39  51 NW10      30.12R
TIOGA          CLEAR     57  39  51 NW12      30.14R
WATFORD CITY   CLEAR     59  36  42 NW9       30.12R
BISMARCK       CLEAR     63  39  41 NW8       30.07R
GRAND FORKS    MOCLDY    54  50  86 NW5       29.90R
FARGO          CLOUDY    61  48  62 NW10      29.89R
BUFFALO SD     CLEAR     63  36  37 NW17      30.14R
RAPID CITY     CLEAR     55  41  59 N8        30.22R
$$

REGIONAL REPORTS...WYOMING/IDAHO/WASHINGTON
CITY           SKY/WX    TMP DP  RH WIND       PRES   REMARKS
GILLETTE       FAIR      50  37  61 CALM      30.28R
SHERIDAN       CLEAR     54  43  67 W6        30.27R
CODY           CLEAR    N/A N/A N/A N/A        N/A
YELLOWSTONE LA CLEAR     48  41  77 NW5       30.40R
SALMON         CLEAR     66  45  47 S5        30.08R
MULLAN PASS    CLEAR     61  36  39 VRB5      30.27S
SAND POINT     CLEAR     61  50  67 CALM      30.08F
SPOKANE        FAIR      75  43  32 N7        30.06F

$$




USA.gov is the U.S. government's official web portal to all federal, state and local government web resources and services.